JNA660 RKTH-RKSS

Flight info

Callsign JNA660
Flight time 0h 33m
Altitude 20000
Route MARMI1 ELAPI Y685 GUKDO GUKDO2T
Aircraft B738/M-SDE2E3FGHIRWXY/LB1

Departure

Time 2026-04-30 12:15
Airport Pohang Airport (G-815/K-3) (RKTH)

Arrival

Time 2026-04-30 12:48
Airport Gimpo International Airport (RKSS)
Time Latitude Longitude Altitude Speed Heading
2026-04-30 12:03 35.98485 129.43286 68 ft 0 kts 177°
2026-04-30 12:08 35.98484 129.43286 70 ft 2 kts 172°
2026-04-30 12:08 35.98482 129.43300 68 ft 1 kts 36°
2026-04-30 12:08 35.98507 129.43297 63 ft 6 kts 357°
2026-04-30 12:08 35.98509 129.43297 64 ft 0 kts 357°
2026-04-30 12:13 35.98531 129.43294 67 ft 13 kts 349°
2026-04-30 12:13 35.98649 129.43224 66 ft 20 kts 314°
2026-04-30 12:13 35.98771 129.43177 61 ft 17 kts
2026-04-30 12:13 35.98801 129.43106 63 ft 12 kts 261°
2026-04-30 12:14 35.98800 129.43047 64 ft 0 kts 270°
2026-04-30 12:14 35.98800 129.43040 64 ft 6 kts 270°
2026-04-30 12:14 35.98799 129.42800 74 ft 60 kts 269°
2026-04-30 12:14 35.98791 129.41993 75 ft 124 kts 270°
2026-04-30 12:15 35.98782 129.40740 237 ft 158 kts 270°
2026-04-30 12:15 35.98832 129.39295 636 ft 177 kts 274°
2026-04-30 12:15 35.98972 129.37748 1236 ft 185 kts 279°
2026-04-30 12:15 35.99043 129.36149 1869 ft 190 kts 270°
2026-04-30 12:16 35.98959 129.34435 2213 ft 211 kts 266°
2026-04-30 12:16 35.98872 129.32533 2391 ft 232 kts 268°
2026-04-30 12:16 35.98906 129.30499 2730 ft 242 kts 285°
2026-04-30 12:16 35.99792 129.28730 3040 ft 253 kts 325°
2026-04-30 12:17 36.03006 129.26854 4485 ft 255 kts 338°
2026-04-30 12:17 36.04615 129.25965 5272 ft 256 kts 337°
2026-04-30 12:17 36.06251 129.25034 5821 ft 261 kts 336°
2026-04-30 12:18 36.07894 129.24077 6007 ft 262 kts 336°
2026-04-30 12:18 36.09549 129.23101 6000 ft 262 kts 336°
2026-04-30 12:18 36.10621 129.22467 5988 ft 255 kts 336°
2026-04-30 12:18 36.12208 129.21517 6003 ft 252 kts 333°
2026-04-30 12:19 36.13555 129.20077 6113 ft 264 kts 309°
2026-04-30 12:19 36.14641 129.18191 6749 ft 270 kts 307°
2026-04-30 12:19 36.15728 129.16279 7461 ft 274 kts 305°
2026-04-30 12:19 36.16832 129.14328 8155 ft 279 kts 304°
2026-04-30 12:20 36.17959 129.12338 8852 ft 285 kts 303°
2026-04-30 12:20 36.19110 129.10317 9626 ft 289 kts 303°
2026-04-30 12:20 36.20283 129.08257 10298 ft 297 kts 303°
2026-04-30 12:20 36.21518 129.06089 10510 ft 321 kts 302°
2026-04-30 12:21 36.22856 129.03743 10686 ft 344 kts 302°
2026-04-30 12:21 36.24278 129.01248 10876 ft 364 kts 303°
2026-04-30 12:21 36.25767 128.98640 11317 ft 375 kts 302°
2026-04-30 12:21 36.27282 128.95984 11929 ft 380 kts 302°
2026-04-30 12:22 36.28815 128.93294 12559 ft 385 kts 301°
2026-04-30 12:22 36.30370 128.90562 13198 ft 390 kts 301°
2026-04-30 12:22 36.31939 128.87786 13803 ft 397 kts 301°
2026-04-30 12:22 36.33561 128.84925 13982 ft 414 kts 301°
2026-04-30 12:23 36.35223 128.81982 14320 ft 424 kts 301°
2026-04-30 12:23 36.36940 128.78972 14908 ft 427 kts 301°
2026-04-30 12:23 36.38667 128.75953 15510 ft 430 kts 301°
2026-04-30 12:23 36.40407 128.72901 16053 ft 434 kts 301°
2026-04-30 12:24 36.42156 128.69816 16621 ft 438 kts 301°
2026-04-30 12:24 36.43898 128.66701 17166 ft 441 kts 301°
2026-04-30 12:24 36.45652 128.63537 17721 ft 444 kts 300°
2026-04-30 12:24 36.47385 128.60397 18256 ft 448 kts 300°
2026-04-30 12:25 36.49159 128.57186 18706 ft 451 kts 300°
2026-04-30 12:25 36.50943 128.53959 19207 ft 453 kts 300°
2026-04-30 12:25 36.52734 128.50719 19710 ft 455 kts 300°
2026-04-30 12:25 36.54526 128.47477 19931 ft 454 kts 300°
2026-04-30 12:26 36.56326 128.44216 19932 ft 459 kts 300°
2026-04-30 12:26 36.58114 128.40975 19935 ft 459 kts 300°
2026-04-30 12:26 36.59920 128.37701 19932 ft 456 kts 300°
2026-04-30 12:26 36.61682 128.34514 19912 ft 435 kts 300°
2026-04-30 12:27 36.63368 128.31465 19912 ft 419 kts 300°
2026-04-30 12:27 36.65041 128.28414 19940 ft 431 kts 300°
2026-04-30 12:27 36.66755 128.25277 19946 ft 445 kts 300°
2026-04-30 12:27 36.68501 128.22080 19947 ft 455 kts 300°
2026-04-30 12:28 36.70294 128.18807 19958 ft 456 kts 300°
2026-04-30 12:28 36.72081 128.15550 19933 ft 452 kts 300°
2026-04-30 12:28 36.73855 128.12316 19930 ft 449 kts 300°
2026-04-30 12:28 36.75620 128.09092 19928 ft 449 kts 300°
2026-04-30 12:29 36.77357 128.05912 19915 ft 450 kts 300°
2026-04-30 12:29 36.79119 128.02682 19926 ft 449 kts 300°
2026-04-30 12:29 36.80885 127.99440 19931 ft 451 kts 300°
2026-04-30 12:29 36.82613 127.96271 19882 ft 434 kts 300°
2026-04-30 12:30 36.84297 127.93184 19454 ft 427 kts 300°
2026-04-30 12:30 36.85962 127.90124 18913 ft 423 kts 300°
2026-04-30 12:30 36.87607 127.87094 18391 ft 418 kts 300°
2026-04-30 12:30 36.89235 127.84090 17782 ft 415 kts 300°
2026-04-30 12:31 36.90844 127.81119 17187 ft 411 kts 301°
2026-04-30 12:31 36.92420 127.78208 16617 ft 407 kts 301°
2026-04-30 12:31 36.93999 127.75291 16069 ft 398 kts 301°
2026-04-30 12:31 36.95524 127.72472 15526 ft 385 kts 301°
2026-04-30 12:32 36.97003 127.69738 15014 ft 373 kts 301°
2026-04-30 12:32 36.98434 127.67088 14517 ft 362 kts 301°
2026-04-30 12:32 36.99821 127.64517 14035 ft 352 kts 301°
2026-04-30 12:32 37.01177 127.61999 13550 ft 345 kts 302°
2026-04-30 12:33 37.02503 127.59535 13040 ft 337 kts 302°
2026-04-30 12:33 37.03796 127.57129 12562 ft 329 kts 302°
2026-04-30 12:33 37.05075 127.54748 12118 ft 329 kts 302°
2026-04-30 12:33 37.06351 127.52370 11668 ft 329 kts 303°
2026-04-30 12:34 37.07628 127.49992 11208 ft 325 kts 303°
2026-04-30 12:34 37.08870 127.47677 10855 ft 314 kts 303°
2026-04-30 12:34 37.10054 127.45469 10722 ft 298 kts 303°
2026-04-30 12:34 37.11185 127.43358 10596 ft 287 kts 303°
2026-04-30 12:35 37.12284 127.41306 10489 ft 279 kts 303°
2026-04-30 12:35 37.13365 127.39286 10374 ft 279 kts 303°
2026-04-30 12:35 37.14426 127.37303 10332 ft 268 kts 304°
2026-04-30 12:35 37.15420 127.35443 10248 ft 253 kts 304°
2026-04-30 12:36 37.16370 127.33665 10161 ft 238 kts 303°
2026-04-30 12:36 37.17271 127.31977 10032 ft 226 kts 304°
2026-04-30 12:36 37.18138 127.30353 9758 ft 222 kts 304°
2026-04-30 12:36 37.18983 127.28768 9535 ft 217 kts 304°
2026-04-30 12:37 37.19818 127.27201 9314 ft 215 kts 304°
2026-04-30 12:37 37.20655 127.25632 9115 ft 217 kts 304°
2026-04-30 12:37 37.21499 127.24051 8893 ft 219 kts 304°
2026-04-30 12:37 37.22346 127.22461 8690 ft 219 kts 303°
2026-04-30 12:38 37.23179 127.20896 8463 ft 217 kts 303°
2026-04-30 12:38 37.24015 127.19323 8235 ft 214 kts 304°
2026-04-30 12:38 37.24832 127.17786 8036 ft 209 kts 304°
2026-04-30 12:38 37.25696 127.16357 7766 ft 203 kts 316°
2026-04-30 12:39 37.26727 127.15180 7500 ft 198 kts 320°
2026-04-30 12:39 37.27757 127.14050 7213 ft 194 kts 320°
2026-04-30 12:39 37.28774 127.12919 6958 ft 201 kts 319°
2026-04-30 12:39 37.29860 127.11703 6684 ft 216 kts 319°
2026-04-30 12:40 37.30994 127.10454 6366 ft 217 kts 321°
2026-04-30 12:40 37.32137 127.09233 6028 ft 213 kts 321°
2026-04-30 12:40 37.33215 127.08024 5696 ft 202 kts 319°
2026-04-30 12:40 37.34222 127.06862 5418 ft 192 kts 320°
2026-04-30 12:41 37.35202 127.05769 5206 ft 186 kts 319°
2026-04-30 12:41 37.36131 127.04661 5218 ft 185 kts 318°
2026-04-30 12:41 37.37070 127.03495 4992 ft 189 kts 316°
2026-04-30 12:41 37.37967 127.02353 4763 ft 178 kts 316°
2026-04-30 12:42 37.38815 127.01268 4523 ft 169 kts 316°
2026-04-30 12:42 37.39636 127.00215 4294 ft 167 kts 316°
2026-04-30 12:42 37.40461 126.99156 4084 ft 173 kts 315°
2026-04-30 12:42 37.41308 126.98069 3847 ft 178 kts 315°
2026-04-30 12:43 37.42149 126.96988 3605 ft 167 kts 315°
2026-04-30 12:43 37.42936 126.95974 3372 ft 157 kts 314°
2026-04-30 12:43 37.43669 126.95033 3189 ft 143 kts 314°
2026-04-30 12:43 37.44338 126.94171 2982 ft 133 kts 314°
2026-04-30 12:44 37.44995 126.93335 2770 ft 133 kts 317°
2026-04-30 12:44 37.45681 126.92547 2622 ft 137 kts 312°
2026-04-30 12:44 37.46313 126.91676 2460 ft 135 kts 313°
2026-04-30 12:44 37.46947 126.90835 2293 ft 133 kts 313°
2026-04-30 12:45 37.47579 126.90014 2100 ft 127 kts 313°
2026-04-30 12:45 37.48182 126.89237 1933 ft 122 kts 313°
2026-04-30 12:45 37.48770 126.88466 1802 ft 122 kts 312°
2026-04-30 12:45 37.49338 126.87667 1634 ft 124 kts 311°
2026-04-30 12:46 37.49932 126.86878 1475 ft 126 kts 313°
2026-04-30 12:46 37.50553 126.86080 1324 ft 128 kts 314°
2026-04-30 12:46 37.51181 126.85293 1186 ft 127 kts 313°
2026-04-30 12:46 37.51806 126.84477 963 ft 132 kts 313°
2026-04-30 12:47 37.52465 126.83637 735 ft 136 kts 313°
2026-04-30 12:47 37.53135 126.82798 537 ft 137 kts 312°
2026-04-30 12:47 37.53810 126.81929 382 ft 139 kts 310°
2026-04-30 12:47 37.54496 126.81072 169 ft 137 kts 311°
2026-04-30 12:48 37.55143 126.80244 63 ft 127 kts 312°
2026-04-30 12:48 37.55665 126.79592 61 ft 84 kts 316°
2026-04-30 12:48 37.55979 126.79201 64 ft 49 kts 316°
2026-04-30 12:48 37.56245 126.78988 62 ft 27 kts 345°
2026-04-30 12:49 37.56307 126.79081 58 ft 13 kts 134°
2026-04-30 12:49 37.56230 126.79180 63 ft 18 kts 135°
2026-04-30 12:49 37.56142 126.79291 64 ft 13 kts 135°
2026-04-30 12:49 37.56064 126.79390 62 ft 19 kts 135°
2026-04-30 12:50 37.55993 126.79479 59 ft 0 kts 135°
2026-04-30 12:50 37.55973 126.79503 63 ft 11 kts 135°
2026-04-30 12:50 37.55932 126.79652 63 ft 21 kts 99°
2026-04-30 12:51 37.55909 126.79856 66 ft 25 kts 98°
2026-04-30 12:51 37.55830 126.80042 61 ft 23 kts 135°
2026-04-30 12:51 37.55760 126.80039 64 ft 11 kts 223°
2026-04-30 12:51 37.55720 126.79990 65 ft 0 kts 225°